Home > Weather > Sedona > Past weeks

Flag for USA Weather for the Past 2 Weeks in Sedona, Arizona, USA

Now
45 °F

Mostly cloudy.


Feels Like: 41 °F
Forecast: 46 / 57 °F
Wind: 6 mph from Northeast

Location: Sedona Airport

Current Time: May 1, 2016 at 3:46:18 AM

Latest Report: May 1, 2016 at 3:15 AM


Visibility: 10 mi

Pressure: 29.83 "Hg (25.51 "Hg at 1282m altitude)

Humidity: 76%

Dew Point: 37 °F

Location of SedonaLocation

Historic Weather in Sedona — Graph

°F

Sedona Temperature Yesterday

Maximum temperature yesterday: 63 °F (at 11:35 AM)
Minimum temperature yesterday: 43 °F (at 10:15 PM)
Average temperature yesterday: 52 °F

High & Low Weather Summary for the Past Weeks

 TemperatureHumidityPressure
High84 °F (Apr 21, 1:35 PM)93% (Apr 30, 2:15 PM)30.22 "Hg (Apr 30, 2:15 PM)
Low41 °F (Apr 16, 2:55 AM)8% (Apr 21, 1:35 PM)29.68 "Hg (Apr 28, 2:15 AM)
Average58 °F33%29.96 "Hg
* Reported Apr 16 2:15 AM — May 1 2:55 AM, Sedona, Weather by CustomWeather, © 2016

Note: Actual official high and low records may vary slightly from our data, if they occured in-between our weather recording intervals... More about our weather records

Advertising

Sedona Weather History for the Previous 24 Hours

Scroll right to see more
 ConditionsComfort  
Time TempWeatherWind HumidityBarometerVisibility
2:55 AM
Sun, May 1
45 °FOvercast.8 mph76%29.83 "Hg10 mi
2:15 AM45 °FOvercast.5 mph76%29.83 "Hg10 mi
1:55 AM45 °FOvercast.5 mph76%29.83 "Hg10 mi
1:15 AM45 °FPassing clouds.3 mph76%29.83 "Hg10 mi
12:55 AM45 °FPassing clouds.6 mph76%29.83 "Hg10 mi
11:55 PM
Sat, Apr 30
45 °FOvercast.13 mph81%29.84 "Hg10 mi
11:15 PM43 °FOvercast.12 mph93%29.85 "Hg10 mi
10:55 PM43 °FLight rain. Overcast.8 mph93%29.86 "Hg10 mi
10:15 PM43 °FRain. Overcast.No wind93%29.88 "Hg5 mi
9:15 PM45 °FLight rain. Mostly cloudy.9 mph81%29.85 "Hg10 mi
8:55 PM45 °FOvercast.13 mph87%29.84 "Hg10 mi
8:15 PM46 °FMostly cloudy.9 mph82%29.84 "Hg10 mi
7:15 PM50 °FMostly cloudy.7 mph67%29.80 "Hg10 mi
6:55 PM50 °FOvercast.17 mph71%29.79 "Hg10 mi
6:15 PM50 °FThunderstorms. Broken clouds.8 mph76%29.78 "Hg10 mi
5:55 PM50 °FThundershowers. Broken clouds.7 mph76%29.77 "Hg10 mi
5:15 PM55 °FLight rain. More clouds than sun.9 mph55%29.76 "Hg10 mi
4:55 PM57 °FThundershowers. Cloudy.7 mph55%29.74 "Hg10 mi
4:35 PM59 °FThunderstorms. Broken clouds.6 mph48%29.74 "Hg10 mi
4:15 PM59 °FScattered clouds.6 mph51%29.74 "Hg10 mi
3:55 PM57 °FThunderstorms. Scattered clouds.8 mph59%29.74 "Hg10 mi
3:35 PM55 °FThundershowers. Scattered clouds.16 mph63%29.76 "Hg10 mi
3:15 PM54 °FThunderstorms. Scattered clouds.15 mph72%29.77 "Hg10 mi
2:55 PM52 °FThunderstorms. Broken clouds.14 mph82%29.79 "Hg10 mi
2:15 PM46 °FThundershowers. Cloudy.13 mph93%29.81 "Hg10 mi
1:55 PM46 °FThundershowers. Cloudy.6 mph87%29.83 "Hg7 mi
1:35 PM48 °FThunderstorms. Mostly cloudy.10 mph82%29.82 "Hg7 mi
1:15 PM59 °FThundershowers. Cloudy.12 mph42%29.79 "Hg10 mi
12:55 PM59 °FBroken clouds.8 mph42%29.79 "Hg10 mi
12:35 PM59 °FLight rain. More clouds than sun.6 mph42%29.80 "Hg10 mi
12:15 PM59 °FThunderstorms. Broken clouds.17 mph39%29.80 "Hg10 mi
11:55 AM63 °FScattered clouds.14 mph34%29.80 "Hg10 mi
11:35 AM63 °FSunny.7 mph37%29.81 "Hg10 mi
11:15 AM61 °FScattered clouds.10 mph39%29.82 "Hg10 mi
10:55 AM61 °FThunderstorms. Broken clouds.12 mph39%29.83 "Hg10 mi
10:35 AM59 °FMore clouds than sun.10 mph45%29.83 "Hg10 mi
10:15 AM59 °FBroken clouds.6 mph45%29.84 "Hg10 mi
9:55 AM59 °FScattered clouds.8 mph42%29.84 "Hg10 mi
9:35 AM59 °FBroken clouds.8 mph45%29.84 "Hg10 mi
9:15 AM55 °FBroken clouds.10 mph51%29.84 "Hg10 mi
8:55 AM55 °FBroken clouds.9 mph55%29.85 "Hg10 mi
8:35 AM54 °FOvercast.7 mph58%29.85 "Hg10 mi
8:15 AM52 °FMore clouds than sun.No wind58%29.85 "Hg10 mi
7:55 AM52 °FMore clouds than sun.No wind58%29.85 "Hg10 mi
7:35 AM52 °FMostly cloudy.5 mph58%29.85 "Hg10 mi
7:15 AM52 °FMostly cloudy.3 mph58%29.85 "Hg10 mi
6:55 AM50 °FOvercast.No wind62%29.84 "Hg10 mi
6:35 AM50 °FOvercast.3 mph62%29.83 "Hg10 mi
6:15 AM50 °FOvercast.3 mph62%29.83 "Hg10 mi
5:55 AM50 °FMostly cloudy.3 mph62%29.83 "Hg10 mi
5:35 AM50 °FOvercast.3 mph58%29.82 "Hg10 mi
5:15 AM50 °FOvercast.No wind62%29.82 "Hg10 mi
4:55 AM50 °FOvercast.No wind62%29.83 "Hg10 mi
4:35 AM50 °FMostly cloudy.No wind62%29.83 "Hg10 mi
4:15 AM50 °FMostly cloudy.No wind62%29.83 "Hg10 mi
3:55 AM50 °FMostly cloudy.No wind67%29.84 "Hg10 mi
3:15 AM50 °FPartly cloudy.No wind62%29.84 "Hg10 mi
Weather by CustomWeather, © 2016

See weather overviewHow to use our weather pages